Regional Weather Roundup
Issued by NWS Wakefield, VA

Home | Current Version | Previous Version | Graphics & Text | Print | Product List | Glossary On
Versions: 1 2 3 4 5 6 7 8 9 10 11 12 13 14 15 16 17 18 19 20 21 22 23 24 25 26 27 28 29 30 31 32 33 34 35 36 37 38 39 40 41 42 43 44 45 46 47 48 49
000
ASUS41 KAKQ 271815
RWRAKQ

REGIONAL WEATHER ROUNDUP
NATIONAL WEATHER SERVICE WAKEFIELD VA
200 PM EDT MON JUL 27 2015

Note: "fair" indicates few or no clouds below 12,000 feet with no
significant weather and/or obstructions to visibility. * = Denotes
station may not report precipitation (e.g., rain,snow,etc.),
thunder or fog.

VAZ042-051-052>054-056-271900-
NORTHERN VIRGINIA

CITY           SKY/WX    TMP DP  RH WIND       PRES   REMARKS
WASH NATIONAL  PTSUNNY   88  71  57 SE3       29.98F
DULLES         PTSUNNY   84  72  67 CALM      29.99F
FORT BELVOIR   MOSUNNY   86  72  62 E6        29.98F
QUANTICO       PTSUNNY   83  71  67 S7        29.99F
FREDERICKSBRG* PTSUNNY   89  72  57 S5        29.97F HX  95
STAFFORD*      PTSUNNY   83  68  59 SE3       30.02F
WARRENTON      LGT RAIN  82  76  83 CALM      29.99F
CULPEPER*      LGT RAIN  79  74  84 CALM      30.00S
MANASSAS*      SUNNY     84  73  70 S8        29.98F
LEESBURG*      PTSUNNY   86  75  70 NE5       30.00F HX  95
WINCHESTER     MOSUNNY   86  72  62 E7        30.00S
FRONT ROYAL*   CLOUDY    82  72  69 SE5       29.98F
LURAY*         TSTM      79  72  78 NE5       30.01R
$$

VAZ048-049-060>072-079>083-271900-
CENTRAL AND SOUTH CENTRAL VIRGINIA

CITY           SKY/WX    TMP DP  RH WIND       PRES   REMARKS
RICHMOND       PTSUNNY   87  73  62 S12G17    29.99F
CHESTERFIELD*  FAIR      86  66  51 S12       30.01F
PETERSBURG*    MOSUNNY   86  78  75 S9        30.00F HX  98
HANOVER        PTSUNNY   86  71  60 S9        30.00F
TAPPAHANNOCK*  PTSUNNY   85  69  57 CALM      30.00F
QUINTON*       MOCLDY    83  74  73 S6        29.99F
CHARLOTTSVILLE MOSUNNY   85  71  63 E6        29.99F
GORDONSVILLE*  FAIR      84  72  65 CALM      29.99S
ORANGE*        MOSUNNY   88  72  58 CALM      30.01S
LOUISA*        PTSUNNY   86  72  62 SW5       29.99F
BUMPASS*       FAIR      84  72  67 CALM      30.00S
FARMVILLE*     PTSUNNY   90  70  51 S8G16     29.98F
CREWE*         MOCLDY   N/A N/A N/A SE7       30.00F
FORT PICKETT*  FAIR      85  74  70 S9        30.01F
CHASE CITY*    FAIR      89  75  63 S6        30.01F HX  98
CLARKSVILLE*   MOCLDY    88  73  62 S5        30.01F HX  96
SOUTH HILL*    PTSUNNY   83  74  73 S5        30.07F
LAWRENCEVILLE* MOCLDY    84  75  74 SE6       30.01F
EMPORIA*       MOSUNNY   82  73  74 SE5       30.03F
$$

VAZ088>098-271900-
SOUTHEAST VIRGINIA

CITY           SKY/WX    TMP DP  RH WIND       PRES   REMARKS
NORFOLK        PTSUNNY   85  68  56 VRB5      30.01F
VIRGINIA BEACH PTSUNNY   86  71  60 S7        30.01F
NORFOLK NAVAL  PTSUNNY   85  68  56 SW5       30.02F
WEST POINT*    MOSUNNY   87  71  59 S6        30.02F
SALUDA*        FAIR      82  73  74 S7        30.01F
NEWPORT NEWS   MOSUNNY   84  70  62 S8        30.02F
LANGLEY AFB    MOSUNNY   84  68  57 S9        30.01F
FORT EUSTIS    MOSUNNY   84  73  69 S8        30.00F
WILLIAMSBURG*  MOSUNNY   90  75  62 SE9       30.02F HX 100
HR EXEC AP*    FAIR      86  72  62 S3        30.04S
FRANKLIN*      MOSUNNY   88  67  49 SW7       30.02F
WAKEFIELD      MOSUNNY   86  68  54 SW8       30.02F
$$

VAZ020-022-025-037-045-271900-
WEST CENTRAL AND SOUTHWEST VIRGINIA

CITY           SKY/WX    TMP DP  RH WIND       PRES   REMARKS
STAUNTON*      MOSUNNY   89  68  49 W5        30.02F
WAYNESBORO*    FAIR      85  68  55 CALM      30.03S
HOT SPRINGS VA CLOUDY    74  65  73 CALM      30.16F
LYNCHBURG      CLOUDY    83  69  62 W6        30.03F
DANVILLE       CLOUDY    83  73  72 CALM      30.02F
SOUTH BOSTON*  FAIR      90  67  46 SW7       30.01F
MARTINSVILLE   LGT RAIN  82  70  68 CALM      30.05F
ROANOKE        CLOUDY    86  70  58 VRB3      30.05F
BLACKSBURG     CLOUDY    76  71  84 W3        30.13F
DUBLIN*        CLOUDY    76  72  86 CALM      30.10F
MARION*        CLOUDY    78  69  74 CALM      30.14F
HILLSVILLE*    LGT RAIN  74  70  86 N5        30.12F
RICHLANDS*     MOCLDY    78  71  77 CALM      30.12F
WISE*          CLOUDY    75  66  73 SW3       30.13S
ABINGDON*      CLOUDY    78  72  82 CALM      30.10S
$$

MDZ021>025-VAZ099-100-271900-
SOUTHERN MARYLAND AND THE DELMARVA PENINSULA

CITY           SKY/WX    TMP DP  RH WIND       PRES   REMARKS
PATUXENT RIVER PTSUNNY   83  73  72 S9        29.99F
BAY BRIDGE APT   N/A     81  72  74 S8        30.00S
LEONARDTOWN    PTSUNNY   81  72  74 S7        30.01F
DOVER          LGT RAIN  81  73  78 SE6       30.00F
GEORGETOWN     CLOUDY    81  71  71 S8        30.02F
EASTON         MOSUNNY   84  72  65 S9        30.04S
CAMBRIDGE      MOSUNNY   82  70  65 S6        30.00S
SALISBURY      CLOUDY    81  73  76 S6        30.01F
OCEAN CITY     PTSUNNY   82  71  69 S7        30.03S
WALLOPS ISLAND PTSUNNY   80  73  79 S9        30.03F
ACCOMACK*      PTSUNNY  N/A N/A N/A S10       30.02S
$$

NCZ012>017-030>032-271900-
NORTH CENTRAL AND EASTERN NORTH CAROLINA

CITY           SKY/WX    TMP DP  RH WIND       PRES   REMARKS
ROANOKE RAPIDS FAIR      82  70  65 SE3       30.02F
RALEIGH        PTSUNNY   88  72  58 S7        30.02F
ELIZABETH CITY CLOUDY    84  72  67 S6        30.03F
AHOSKIE*       CLOUDY    84  68  58 CALM      30.02F
EDENTON*         N/A     85  71  62 S6        30.02F
CURRITUCK*     CLOUDY    84  67  56 S3        30.03F
KILL DEVIL HLS CLOUDY    87  69  56 SE7       30.01F
MANTEO         CLOUDY    82  69  66 S8        30.03F
CAPE HATTERAS  PTSUNNY   86  71  60 SE9       30.03F
TARBORO*         N/A     88  70  54 S3        30.02F
GOLDSBORO      MOSUNNY   89  73  58 VRB3      29.99F HX  96
WASHINGTON     MOSUNNY   85  71  62 SE6       30.02F
GREENVILLE     PTSUNNY   86  70  58 E3        30.03F
NEW BERN       MOSUNNY   89  70  53 S6        30.02F
WILMINGTON     MOSUNNY   86  74  67 E10       30.00F
$$

VAZ048-271900-
ELSEWHERE

CITY           SKY/WX    TMP DP  RH WIND       PRES   REMARKS
HARRISBURG PA  CLOUDY    81  70  69 CALM      30.00F
BALTIMORE      CLOUDY    82  71  69 NE5       29.99F
ANNAPOLIS      CLOUDY    80  72  76 SE10      29.99F
ANDREWS AFB    PTSUNNY   84  72  67 SW2       29.98F
PHILADELPHIA   PTSUNNY   82  68  62 W3        30.01F
HENDERSON NC   PTSUNNY   85  67  55 S3        30.03S
GREENSBORO     CLOUDY    86  65  49 CALM      30.02F
ROCKY MOUNT    PTSUNNY   89  71  55 SE6       30.01F HX  95
$$

VAZ100-271900-
MARINE

STATION/POSITION TIME  TEMP    WIND        PRES    WAVE   SWELL
                       AIR SEA DIR/SP/G            HT/PER HT/PER
                 (UTC) (F)     (DEG/KT/KT) (MB)    (FT/S) (FT/S)
BRANDYWINE LGT   1700   74 77  180/ 11/ 12 1017.1F
CAPE MAY NJ      1700   75 80  150/  8/ 11 1016.7F
LEWES DE         1700   77 73  160/  6/  9 1016.5F
15NM E FENWICK I 1750   76     170/  6/  8 1017.1F   2/11   2/11
OCEAN-CITY-INLET 1700   78 79  190/  6/  9 1016.0F
WACHAPREAGUE VA  1700   80 81  190/  6/  9 1016.7F
GOOSES REEF MD   1800   81 81  170/ 14/ 16 1016.4F
COVE POINT MD    1700   78     190/ 15/ 17 1016.7F
SOLOMONS ISLAND  1700      82                N/A
BISHOPS HEAD MD  1700   79 80  190/ 12/ 17 1015.2F
POTOMAC MD       1800   82 82  220/ 10/ 12 1014.8F   1/ 2
CAMBRIDGE MD     1700   82 82  190/  4/  8 1015.2F
LEWISETTA VA     1700   81 82  220/  9/ 10 1015.8F
RAPPAHANNOCK LGT 1700          190/ 12/ 13 1017.2F
STINGRAY PT      1700   81 83  210/ 10/ 12 1016.6F   1/ 3
YORK RVR RNG VA  1700   80     200/  7/  9 1016.3F
YORKTOWN VA      1700   81 83  200/  7/ 10 1016.4F
JAMESTOWN VA     1800   83 84  190/  6/ 10   N/A
DOMINION TERM VA 1700   80     180/  5/  6 1016.6F
KIPTOPEKE VA     1700      86  190/  7/  8   N/A
CHES BAY BRIDGE  1700   81 82  170/  7/  8 1016.5F
CAPE HENRY VA    1700   81     150/  6/ 10   N/A
CHESAPEAKE LGHT  1700   80     200/ 11/ 12 1017.4F
WILLOUBY STN VA  1700   81     230/  9/ 10 1017.6F
CAPE HENRY BUOY  1728      80                N/A     3/11   2/11
1ST LANDING BUOY 1800      82              1016.1F   1/ 5
CAPE CHARLES BUO 1726      80                N/A     2/11   2/11
OFFSHORE WE BUOY 1711      81                N/A     3/11   2/11
64NM E OF VA BCH 1750   80 80  190/  8/ 10 1016.4F   2/11   2/11
DUCK PIER NC     1700   82 80  130/ 11/ 11 1016.1F
44100 DUCK FRF   1724      81                N/A     2/11   2/11
44056 DUCK FRF   1711      81                N/A     2/11   2/11
OREGON INLET NC  1700   81 82   80/  5/  8 1016.9F
HATTERAS NC      1700   83 81  120/  5/  7 1016.9F
CAPE LOOKOUT NC  1800   82     100/  7/  7 1016.1F
$$


USA.gov is the U.S. government's official web portal to all federal, state and local government web resources and services.